Wind_Speed
51 52 53 54 56 58 60 62 65 66 65 65 67 68 70 72 73 75 77 80 83 87 91 94 96 98 98 98 96 93 91 88 86 84 83 84 84 86
51 52 54 56 58 60 62 65 67 69 70 69 70 72 73 75 77 80 84 88 91 95 97 98 98 96 92 87 81 76 71 67 65 64 64 64 64 65
52 54 56 58 60 62 65 67 68 70 71 71 73 75 78 80 83 87 91 94 96 97 97 95 91 84 77 71 64 58 55 53 51 50 50 50 51 52
54 56 58 60 63 65 67 68 69 71 74 74 75 79 82 86 89 92 94 95 94 92 88 83 76 69 62 55 50 47 45 44 43 43 44 45 46 46
56 58 60 63 65 67 68 69 71 73 76 78 80 84 88 92 93 93 92 90 86 80 74 68 61 55 50 46 44 42 40 39 39 39 39 40 41 41
58 60 63 64 66 67 69 71 73 76 79 83 86 89 91 93 93 90 85 79 72 67 61 56 50 47 45 43 41 39 37 36 36 35 35 35 35 35
60 62 64 65 67 69 71 73 76 80 84 88 90 91 91 91 87 82 75 66 59 56 50 47 45 43 42 41 39 37 36 35 34 33 32 32 32 32
61 63 65 66 68 70 73 77 82 86 90 92 92 91 89 85 78 69 61 54 47 47 44 41 42 40 39 38 38 36 35 33 33 32 31 31 31 31
62 63 65 67 70 73 77 82 87 91 93 92 90 86 80 72 64 57 52 47 43 43 42 38 39 38 38 38 37 35 34 32 32 31 31 30 30 30
62 64 66 70 74 78 82 86 89 91 90 87 82 74 65 58 52 48 45 42 39 41 42 38 36 35 36 37 37 34 32 31 30 30 29 29 29 30
63 66 70 74 78 83 87 89 88 86 81 74 66 59 52 49 46 44 42 40 38 39 41 38 36 34 34 36 35 33 31 30 29 28 28 27 28 29
65 70 74 78 83 88 89 87 81 73 65 57 52 49 46 44 44 43 43 41 39 37 38 36 35 34 31 33 34 32 29 28 28 27 27 28 29 29
69 73 78 83 87 88 84 76 67 58 51 47 44 43 42 42 43 43 43 41 39 37 36 34 32 32 30 28 30 30 28 27 26 26 27 29 30 30
73 77 82 85 85 79 70 60 53 48 44 42 41 40 41 41 42 42 41 40 38 36 33 32 30 28 27 25 25 26 27 26 26 26 27 29 30 30
77 80 82 80 73 63 54 48 43 40 39 38 38 39 40 41 40 39 38 37 36 36 33 30 28 26 25 22 21 22 23 25 26 25 26 27 28 28
77 78 75 67 57 48 42 38 37 37 37 37 37 39 39 39 39 37 35 33 31 32 33 30 27 25 22 19 18 19 20 21 23 24 24 25 26 25
74 70 61 51 42 38 35 34 35 36 37 37 38 38 38 38 37 36 33 30 29 27 27 28 27 24 20 17 15 16 17 18 20 21 21 21 23 25
65 56 46 38 33 31 32 33 35 35 36 37 37 37 37 36 34 33 31 28 27 26 25 23 22 21 19 17 15 13 14 16 18 20 20 19 21 24
51 42 34 30 28 29 31 33 34 35 36 36 36 36 35 34 33 30 28 26 25 25 24 22 19 16 15 15 16 14 14 15 17 19 20 20 20 23
38 31 27 25 27 29 31 33 34 35 35 35 35 35 34 33 31 29 26 25 23 22 21 19 16 14 11 10 12 15 16 16 16 17 19 20 21 22
28 24 23 24 27 29 31 33 34 35 35 36 36 35 33 32 29 27 25 23 21 19 17 15 14 12 10 10 11 14 16 17 17 17 17 18 19 21
21 20 22 24 27 29 31 33 34 35 36 36 35 34 32 30 27 25 23 21 19 17 15 13 12 11 10 11 12 13 15 17 18 19 19 18 18 18
18 19 21 24 27 29 31 32 33 34 35 35 34 33 31 28 26 24 21 18 16 15 13 13 12 11 12 12 13 14 14 15 17 18 19 18 19 19
Wind_Direction
293 293 294 295 297 298 299 299 300 300 301 301 300 300 299 299 298 297 297 296 296 295 295 294 293 292 291 289 287 286 284 281 279 276 273 270 268 266
294 294 296 297 298 299 300 301 302 302 302 302 302 301 301 300 300 300 299 299 299 298 297 296 295 294 293 292 290 287 285 282 280 277 275 273 270 268
294 296 297 299 299 300 301 302 302 303 303 303 303 303 303 302 302 302 302 301 300 299 298 297 296 295 293 291 289 287 285 283 281 279 276 274 272 270
296 297 299 300 301 301 302 303 303 303 304 304 304 304 304 303 303 303 303 302 301 300 299 298 296 295 293 291 288 287 285 283 281 279 277 276 274 271
297 298 300 301 302 303 303 304 304 305 305 305 306 305 305 304 304 304 304 303 302 300 299 298 297 295 292 290 288 287 286 284 282 280 279 278 276 274
298 300 301 302 303 304 304 305 305 305 306 306 307 306 306 305 305 305 304 303 301 299 298 298 296 295 292 290 289 288 287 286 284 283 282 280 278 277
300 301 302 303 304 305 305 306 306 306 307 307 307 306 306 305 305 305 304 302 301 298 298 297 295 294 292 291 289 289 288 287 286 284 283 283 282 280
301 302 303 304 305 306 307 308 308 308 308 307 307 306 306 306 306 305 304 302 299 296 297 296 295 294 291 289 289 289 288 286 285 285 285 285 284 282
302 303 304 305 306 307 308 309 309 309 308 308 307 307 307 307 306 306 305 303 300 296 295 295 294 293 290 288 288 287 285 283 283 284 284 284 283 283
304 305 306 307 308 308 309 309 309 308 307 307 308 308 308 308 308 307 305 303 301 299 297 297 293 292 290 288 287 286 284 282 282 282 283 282 282 284
306 306 307 308 308 309 309 310 309 308 309 309 310 311 311 311 311 310 309 307 304 301 299 299 295 292 291 288 287 285 282 281 281 282 282 282 284 286
307 308 309 309 310 310 310 310 309 310 310 311 312 313 313 313 313 313 311 309 307 304 300 299 296 292 290 287 286 283 281 280 281 282 283 285 288 290
308 309 309 310 311 311 311 311 311 312 312 312 312 313 313 314 314 314 313 311 310 307 304 301 297 294 292 285 282 282 281 281 282 284 287 291 293 294
310 310 311 312 313 313 313 313 314 315 315 314 314 314 315 314 314 314 313 313 312 310 308 306 302 297 293 287 279 279 282 283 283 286 290 293 295 296
311 312 313 314 315 315 315 317 318 318 318 318 317 317 317 316 315 315 314 314 313 312 311 310 307 304 298 287 277 275 277 281 285 287 291 293 295 295
313 315 315 316 316 317 319 320 321 322 321 321 320 320 320 319 318 317 315 314 313 313 313 313 312 309 302 293 284 278 278 279 282 286 289 293 296 298
315 316 317 318 319 321 323 325 325 324 324 324 324 324 323 322 321 319 318 316 314 313 312 314 315 314 307 298 290 286 286 288 291 292 294 296 298 303
318 319 320 321 323 326 328 329 328 327 327 326 327 327 327 326 325 323 321 319 318 317 315 314 314 313 312 308 303 298 297 299 301 303 303 302 302 307
320 321 323 326 329 332 333 334 333 333 332 331 331 331 331 331 330 328 325 324 322 320 319 318 316 314 310 308 309 311 311 310 310 311 311 310 310 312
323 325 328 332 335 337 338 339 339 339 338 337 336 335 335 334 333 332 330 328 327 325 324 324 325 323 320 314 312 315 319 320 318 317 317 316 318 320
327 331 334 337 340 341 342 343 343 343 342 341 340 339 338 337 337 336 335 334 334 334 334 333 334 336 335 330 325 323 325 327 327 327 327 325 325 327
332 337 340 342 344 345 345 346 346 347 346 346 345 345 344 344 343 342 342 342 343 344 346 348 350 350 347 342 339 336 335 334 335 336 338 338 337 336
338 341 344 346 347 347 348 349 350 350 351 351 352 352 351 351 351 351 351 353 355 358 1 3 4 2 358 355 353 350 348 346 345 344 344 345 346 347
Height
5681 5676 5672 5667 5662 5656 5651 5645 5639 5635 5632 5626 5617 5609 5601 5594 5586 5578 5570 5562 5553 5543 5534 5524 5515 5505 5496 5487 5478 5469 5462 5456 5450 5446 5443 5442 5442 5442
5669 5665 5660 5655 5649 5643 5637 5630 5622 5616 5611 5606 5597 5589 5581 5572 5564 5555 5546 5536 5525 5513 5502 5491 5481 5471 5461 5452 5444 5437 5431 5426 5422 5419 5416 5414 5414 5414
5658 5653 5647 5641 5635 5629 5622 5615 5607 5598 5593 5588 5578 5568 5559 5550 5541 5530 5519 5508 5496 5483 5471 5460 5450 5441 5433 5426 5420 5415 5410 5406 5402 5400 5397 5396 5395 5395
5645 5640 5634 5628 5621 5614 5606 5598 5590 5581 5573 5568 5560 5549 5538 5526 5517 5506 5493 5480 5467 5455 5443 5433 5424 5417 5411 5406 5402 5398 5394 5391 5388 5385 5383 5382 5380 5379
5633 5627 5620 5613 5606 5598 5590 5582 5573 5564 5554 5545 5538 5527 5515 5501 5491 5480 5467 5454 5440 5429 5420 5412 5404 5399 5394 5390 5387 5383 5381 5378 5375 5373 5370 5368 5366 5365
5620 5613 5606 5599 5591 5583 5574 5565 5555 5546 5535 5524 5515 5504 5491 5477 5464 5454 5445 5431 5419 5407 5401 5394 5389 5384 5380 5376 5373 5370 5368 5365 5362 5360 5358 5356 5354 5353
5606 5599 5591 5583 5575 5566 5557 5547 5537 5526 5515 5504 5493 5480 5468 5454 5442 5430 5420 5412 5401 5390 5387 5380 5376 5372 5367 5363 5360 5358 5355 5353 5350 5348 5346 5344 5343 5341
5593 5585 5576 5568 5559 5550 5540 5528 5516 5504 5492 5480 5469 5456 5444 5430 5419 5409 5400 5394 5388 5378 5374 5370 5364 5360 5356 5352 5349 5346 5344 5341 5339 5337 5335 5333 5332 5330
5578 5570 5561 5552 5542 5533 5522 5510 5496 5480 5467 5455 5444 5432 5420 5409 5400 5393 5384 5378 5372 5365 5361 5360 5354 5349 5344 5340 5337 5335 5333 5330 5328 5327 5325 5323 5321 5319
5564 5555 5546 5536 5525 5514 5504 5492 5477 5461 5447 5434 5422 5411 5401 5391 5384 5378 5371 5366 5361 5352 5347 5346 5343 5339 5334 5329 5325 5323 5322 5320 5318 5316 5314 5312 5310 5308
5549 5539 5529 5519 5508 5497 5485 5472 5458 5442 5426 5413 5402 5393 5385 5378 5371 5365 5359 5354 5350 5343 5335 5333 5330 5327 5324 5318 5314 5312 5310 5309 5308 5306 5304 5302 5300 5298
5536 5524 5513 5501 5489 5475 5462 5449 5437 5423 5411 5399 5389 5381 5374 5367 5360 5353 5347 5342 5337 5332 5326 5322 5317 5314 5314 5309 5304 5302 5300 5299 5298 5296 5294 5292 5290 5288
5520 5508 5496 5482 5469 5454 5440 5427 5416 5406 5397 5388 5380 5373 5365 5358 5351 5344 5336 5330 5325 5320 5315 5311 5307 5302 5300 5299 5295 5292 5291 5289 5288 5287 5284 5282 5279 5276
5503 5490 5477 5463 5448 5434 5421 5410 5401 5393 5386 5378 5371 5364 5357 5350 5342 5335 5327 5320 5314 5309 5304 5300 5297 5293 5290 5288 5287 5284 5282 5281 5280 5278 5276 5273 5270 5266
5484 5470 5456 5443 5429 5417 5407 5398 5391 5383 5376 5370 5362 5355 5348 5340 5333 5327 5319 5312 5306 5299 5295 5291 5287 5284 5281 5279 5278 5277 5276 5274 5272 5270 5268 5265 5262 5258
5465 5452 5438 5425 5415 5406 5398 5390 5383 5376 5369 5362 5355 5347 5339 5332 5324 5317 5311 5305 5300 5294 5287 5283 5279 5276 5274 5272 5271 5270 5269 5267 5266 5263 5261 5257 5253 5249
5449 5436 5424 5414 5405 5397 5390 5384 5377 5370 5362 5355 5347 5340 5331 5323 5316 5309 5303 5297 5293 5288 5283 5278 5273 5270 5267 5266 5265 5264 5262 5261 5259 5256 5253 5250 5246 5241
5433 5422 5413 5405 5398 5392 5385 5378 5371 5363 5355 5348 5340 5332 5324 5316 5309 5302 5295 5291 5286 5281 5277 5274 5270 5267 5264 5261 5259 5259 5257 5255 5253 5249 5246 5243 5239 5234
5420 5412 5405 5399 5393 5387 5380 5373 5365 5357 5349 5341 5333 5325 5318 5310 5303 5296 5290 5285 5281 5276 5272 5268 5265 5263 5261 5258 5256 5254 5252 5250 5247 5244 5240 5236 5232 5227
5411 5405 5400 5394 5389 5382 5376 5368 5360 5352 5344 5336 5327 5320 5312 5304 5298 5291 5286 5281 5276 5272 5268 5264 5262 5259 5257 5256 5254 5252 5248 5245 5243 5239 5235 5231 5225 5220
5405 5400 5396 5391 5385 5379 5372 5364 5356 5348 5340 5331 5323 5315 5307 5300 5293 5287 5282 5277 5273 5269 5265 5262 5260 5258 5256 5254 5252 5250 5246 5242 5238 5235 5231 5226 5221 5216
5401 5397 5393 5387 5382 5375 5368 5360 5353 5344 5336 5328 5319 5311 5303 5296 5290 5284 5279 5275 5271 5267 5264 5262 5259 5257 5255 5253 5251 5248 5245 5241 5236 5231 5227 5222 5217 5212
5398 5395 5390 5385 5379 5372 5365 5358 5350 5342 5334 5326 5317 5309 5302 5294 5288 5283 5278 5274 5271 5268 5265 5263 5260 5258 5256 5253 5250 5247 5243 5240 5235 5231 5226 5220 5214 5209